Moffett NAS, CA

3:39 PM PDT on April 29, 2017 (GMT -0700)
Moffett Federal Air Field

Weather History for KNUQ - February, 2014

Change the Weather History Date:

Saturday, February 8, 2014

  Actual Average Record
Temperature  
Mean Temperature 60 °F 53 °F  
Max Temperature 65 °F 61 °F 75 °F (2016)
Min Temperature 54 °F 45 °F 31 °F (1948)
Degree Days  
Heating Degree Days 5    
Month to date heating degree days 113  
Since 1 July heating degree days 1310  
Cooling Degree Days 0    
Month to date cooling degree days 0  
Year to date cooling degree days 0  
Growing Degree Days 9 (Base 50)    
Moisture  
Dew Point 52 °F    
Average Humidity 77    
Maximum Humidity 86    
Minimum Humidity 67    
Precipitation  
Precipitation 0.04 in 0.10 in 0.72 in (2015)
Month to date precipitation 0.74 0.82  
Year to date precipitation 0.82 3.57  
Since 1 July precipitation 2.08  
Sea Level Pressure  
Sea Level Pressure 30.14 in    
Wind  
Wind Speed 11 mph (SSE)    
Max Wind Speed 21 mph    
Max Gust Speed 26 mph    
Visibility 10 miles    
Events Rain    
T = Trace of Precipitation, MM = Missing Value Source: NWS Daily Summary

Daily Weather History Graph

Daily Weather History Graph

Search for Another Location

Airport or City:

Trip Planner

Search our weather history database for the weather conditions in past years. The results will help you decide how hot, cold, wet, or windy it might be!

Date:

Astronomy

Feb. 08, 2014 Rise Set
Actual Time 7:04 AM PST 5:40 PM PST
Civil Twilight 6:37 AM PST 6:07 PM PST
Nautical Twilight 6:06 AM PST 6:38 PM PST
Astronomical Twilight 5:36 AM PST 7:08 PM PST
Moon 12:40 PM PST (2/8) 2:20 AM PST (2/8)
Length of Visible Light 11h 29m
Length of Day
10h 35m
Waxing Gibbous, 69% of the Moon is Illuminated
Feb 8
Waxing Gibbous
Feb 14
Full
Feb 22
Last Quarter
Mar 1
New
Mar 8
First Quarter

Hourly Weather History & Observations

Time (PST) Temp. Dew Point Humidity Pressure Visibility Wind Dir Wind Speed Gust Speed Precip Events Conditions
12:56 AM 55.0 °F 48.9 °F 80% 30.11 in 10.0 mi SE 13.8 mph - N/A   Scattered Clouds
1:56 AM 54.0 °F 48.9 °F 83% 30.11 in 10.0 mi ESE 12.7 mph 20.7 mph N/A   Overcast
2:56 AM 55.0 °F 48.9 °F 80% 30.11 in 10.0 mi SE 15.0 mph 20.7 mph N/A   Overcast
3:56 AM 54.0 °F 48.9 °F 83% 30.11 in 10.0 mi SE 16.1 mph 23.0 mph 0.00 in   Overcast
4:56 AM 55.0 °F 50.0 °F 83% 30.12 in 10.0 mi SE 12.7 mph 21.9 mph 0.02 in Rain Light Rain
5:56 AM 55.0 °F 50.0 °F 83% 30.12 in 10.0 mi SE 12.7 mph - 0.00 in   Overcast
6:56 AM 55.0 °F 50.0 °F 83% 30.12 in 10.0 mi SE 15.0 mph 21.9 mph 0.00 in Rain Light Rain
7:56 AM 55.9 °F 51.1 °F 84% 30.13 in 10.0 mi SE 15.0 mph 20.7 mph 0.00 in Rain Light Rain
8:56 AM 55.9 °F 52.0 °F 87% 30.10 in 10.0 mi SE 15.0 mph - 0.02 in   Partly Cloudy
9:56 AM 59.0 °F 52.0 °F 78% 30.12 in 10.0 mi SE 15.0 mph 19.6 mph N/A   Mostly Cloudy
10:56 AM 63.0 °F 53.1 °F 70% 30.13 in 10.0 mi South 13.8 mph 18.4 mph N/A   Clear
11:56 AM 64.0 °F 53.1 °F 67% 30.14 in 10.0 mi South 12.7 mph 21.9 mph N/A   Partly Cloudy
12:56 PM 64.0 °F 53.1 °F 67% 30.14 in 10.0 mi SSW 6.9 mph 18.4 mph N/A   Mostly Cloudy
1:25 PM 64.4 °F 53.6 °F 68% 30.14 in 10.0 mi SW 5.8 mph - N/A   Mostly Cloudy
1:56 PM 64.0 °F 53.1 °F 67% 30.14 in 10.0 mi SSW 9.2 mph 17.3 mph N/A   Overcast
2:07 PM 64.4 °F 53.6 °F 68% 30.13 in 10.0 mi SW 6.9 mph 16.1 mph N/A   Overcast
2:34 PM 64.4 °F 53.6 °F 68% 30.13 in 10.0 mi SE 4.6 mph - N/A   Overcast
2:56 PM 64.0 °F 53.1 °F 67% 30.14 in 10.0 mi South 6.9 mph - N/A   Overcast
3:22 PM 64.4 °F 53.6 °F 68% 30.14 in 10.0 mi SE 4.6 mph - N/A   Overcast
3:41 PM 64.4 °F 53.6 °F 68% 30.14 in 10.0 mi SSE 4.6 mph - N/A   Overcast
3:56 PM 64.0 °F 53.1 °F 67% 30.15 in 10.0 mi Variable 5.8 mph - N/A   Overcast
4:04 PM 62.6 °F 53.6 °F 72% 30.14 in 10.0 mi ESE 5.8 mph - N/A   Overcast
4:56 PM 63.0 °F 53.1 °F 70% 30.14 in 10.0 mi SSE 6.9 mph - N/A   Mostly Cloudy
5:56 PM 61.0 °F 53.1 °F 75% 30.14 in 10.0 mi SE 11.5 mph 18.4 mph N/A   Overcast
6:56 PM 61.0 °F 52.0 °F 72% 30.15 in 10.0 mi SE 12.7 mph - N/A   Mostly Cloudy
7:56 PM 61.0 °F 52.0 °F 72% 30.16 in 10.0 mi SE 9.2 mph - N/A   Overcast
8:56 PM 61.0 °F 52.0 °F 72% 30.16 in 10.0 mi SE 10.4 mph - N/A   Mostly Cloudy
9:56 PM 61.0 °F 52.0 °F 72% 30.19 in 10.0 mi SE 9.2 mph - N/A   Overcast
10:56 PM 61.0 °F 53.1 °F 75% 30.19 in 10.0 mi SE 5.8 mph - N/A   Overcast
11:56 PM 60.1 °F 52.0 °F 75% 30.17 in 10.0 mi SSE 6.9 mph - N/A   Mostly Cloudy